Home   Weather   Locarno   Past weeks

Flag for Switzerland Past Weather in Locarno, Ticino, Switzerland — Yesterday and Last 2 Weeks

Now
45 °F

Cool.


Feels Like: 45 °F
Forecast: 25 / 36 °F
Wind: No wind

Location: Locarno-Monti

Current Time: Dec 5, 2016 at 5:54:01 pm

Latest Report: Dec 5, 2016 at 5:00 pm


Visibility: N/A

Pressure: 30.37 "Hg

Humidity: 54%

Dew Point: 29 °F

Location of LocarnoLocation

Past Weather in Locarno — Graph

°F

Locarno Temperature Yesterday

Maximum temperature yesterday: 46 °F (at 2:00 pm)
Minimum temperature yesterday: 42 °F (at 5:00 am)
Average temperature yesterday: 44 °F

High & Low Weather Summary for the Past Weeks

 TemperatureHumidityPressure
High57 °F (Dec 1, 2:00 pm)100% (Nov 21, 1:00 am)30.60 "Hg (Nov 21, 1:00 am)
Low33 °F (Nov 30, 8:00 am)34% (Dec 1, 2:00 pm)29.86 "Hg (Nov 27, 3:00 pm)
Average47 °F81%30.16 "Hg
* Reported Nov 20 4:00 pm — Dec 5 4:00 pm, Locarno, Weather by CustomWeather, © 2016

Note: Actual official high and low records may vary slightly from our data, if they occured in-between our weather recording intervals... More about our weather records

Advertising

Locarno Weather History for the Previous 24 Hours

Scroll right to see more
 ConditionsComfort  
Time TempWeatherWind HumidityBarometerVisibility
4:00 pm
Mon, Dec 5
49 °FPassing clouds.2 mph41%30.35 "Hg19 mi
3:00 pm50 °FCool.2 mph46%30.34 "HgN/A
2:00 pm50 °FCool.3 mph42%30.35 "HgN/A
1:00 pm49 °FPassing clouds.2 mph48%30.39 "Hg19 mi
12:00 pm47 °FCool.2 mph52%30.42 "HgN/A
11:00 am44 °FQuite cool.1 mph56%30.45 "HgN/A
10:00 am43 °FOvercast.2 mph76%30.45 "Hg25 mi
9:00 am43 °FQuite cool.1 mph62%30.43 "HgN/A
8:00 am42 °FQuite cool.1 mph60%30.41 "HgN/A
7:00 am42 °FOvercast.1 mph77%30.40 "Hg31 mi
6:00 am42 °FQuite cool.No wind71%30.39 "HgN/A
5:00 am42 °FQuite cool.1 mph75%30.39 "HgN/A
4:00 am43 °FQuite cool.No wind77%30.40 "HgN/A
3:00 am43 °FQuite cool.No wind78%30.40 "HgN/A
2:00 am44 °FQuite cool.1 mph76%30.40 "HgN/A
1:00 am44 °FQuite cool.2 mph75%30.39 "HgN/A
12:00 am43 °FQuite cool.1 mph83%30.40 "HgN/A
11:00 pm
Sun, Dec 4
43 °FQuite cool.2 mph82%30.39 "HgN/A
10:00 pm43 °FQuite cool.No wind83%30.38 "HgN/A
9:00 pm44 °FQuite cool.No wind83%30.37 "HgN/A
8:00 pm44 °FQuite cool.2 mph84%30.37 "HgN/A
7:00 pm44 °FFog.2 mph85%30.35 "Hg2 mi
6:00 pm45 °FQuite cool.1 mph89%30.34 "HgN/A
5:00 pm45 °FCool.No wind88%30.32 "HgN/A
Weather by CustomWeather, © 2016

See weather overviewHow to use our weather pages